Погода Большеречье

Погода Большеречье : погода сейчас, прогноз погоды и архив. Всё, что Вы хотите узнать о погоде Большеречье!

Хотите узнать прогноз погоды Большеречье? Тогда Вам сюда: Погода Большеречье

Поиск расширенной информации на нашем сайте:

Другие новости

Новости СМИ2

Главная страница сайта

Новости сайта

02.10.2013

Напоминаем, что на нашем новом сайте вы можете получить высокодетализированные прогнозы погоды по пунктам России, СНГ и мира (включающие важные для авиации метеовеличины, такие как направление и скорость ветра, видимость, явления погоды, количество и форма облачности, нижняя и верхняя граница облачности), а также ознакомиться с разнообразными материалами по авиационной метеорологии и подборкой полезных ссылок на эту тему.

Сайт Метеоцентр.Азия посвящён разработке технологий оптимизации авиаметеорологического обслуживания, включая проектирование и перспективное создание нескольких автоматизированных авиаметеорологических систем:
- система выпуска высокодетальных прогностических карт явлений погоды для нижнего воздушного пространства по России и ближнему зарубежью;
- система верификации прогнозов TAF (выпускаемых синоптиками официальных АМСГ РФ и ближнего зарубежья) и AUTOTAF (выпускаемых сайтом Метеоцентр.Азия) - выявление ошибок, онлайн-сопоставление с фактической погодой METAR, автоматическое внесение коррективов в прогнозы при резком отклонении фактической погоды от прогноза, подсчёт оправдываемости прогнозов по элементам и в целом;
- система обработки, анализа и отображения авиаметеорологической информации для применения провайдерами метеорологической информации.

Рекомендуем: пленка тонированная для стекол

Погода Большеречье - сегодня

Время (UTC), дата Ветер
(°,м/с) 
Видим.   Явления Облачность Т
(°С)
Тd
(°С)
f(%) Тe
(°С)
Pmin
(гПа)
dP
(гПа)
Po
(мм)
O2
(г/м3)
Тmin Tmax R s Состояние
почвы
06 26.05.17 300 (СЗ) 5{13}  20000 м    1/1 1000 м 
[Cu hum]
+11.4 -5.2 31 +10  1024.7  762  295           
09 26.05.17 290 (З) 3{12}  20000 м    ясно 
+14.1 -5.1 26 +14  1024.6  762  292           
12 26.05.17 280 (З) 20000 м    3/0 верхняя 
[Ci fib]
+15.5 -4.9 24 +16  1023.8  -0.7  761  291           
18 26.05.17 150 (ЮВ) 10 км    3/0 верхняя 
[Cs]
+8.2 +0.8 60 +8  1022.9  -0.6  760  297           
21 26.05.17 160 (Ю) 10 км    1/0 верхняя 
[Cs]
+8.6 -2.9 44 +8  1021.7  -1.2  759  297           
00 27.05.17 180 (Ю) 20000 м    3/0 верхняя 
[Cs]
+8.8 -1.3 49 +8  1021.3  -0.4  759  296           
03 27.05.17 190 (Ю) 6-11{11}  20000 м    ясно 
+16 -0.7 32 +16  1019.8  -1.1  758  289  +5.5        сухая 
06 27.05.17 200 (Ю) 6{12}  20000 м    ясно 
+20.9 -0 25 +21  1017.9  -1.7  757  283           
09 27.05.17 170 (Ю) 5{12}  20000 м    3/0 верхняя 
[Ci fib]
+22.7 -1.6 20 +23  1015.8  -2  755  281           
12 27.05.17 160 (Ю) 4{12}  20000 м    9/0 средняя, верхняя 
[Ac trans|Ci]
+22 -3.4 18 +22  1013.5  -2.3  754  281           
15 27.05.17 150 (ЮВ) 20000 м    9/0 средняя, верхняя 
[Ac trans|Ci sp]
+18.5 +0.3 29 +19  1011.3  -2.3  752  284    +23.2       
18 27.05.17 130 (ЮВ) 10 км    6/1 600 м кучево-дожд., средняя, верхняя 
[Cb calv|Ac trans|Ci fib]
+14.9 +0.9 38 +16  1009.6  -1.8  750  287           
21 27.05.17 150 (ЮВ) 10 км    10/10 600 м кучево-дожд. 
[Cb calv]
+14.8 +1.9 42 +15  1007  -2.6  749  286           
00 28.05.17 140 (ЮВ) 20000 м    10/8 600 м кучево-дожд., средняя 
[Cb calv|Ac und]
+15.4 +1.8 40 +16  1004.2  -2.8  746  284           
03 28.05.17 140 (ЮВ) 10 км  слаб. ливневой дождь  10/8 600 м кучево-дожд., средняя 
[Cb calv|Ac As]
+12.8 +7.6 71 +13  1002.7  -1.5  745  286  +12.8    0.4     
09 28.05.17 150 (ЮВ) 5{11}  20000 м    8/4 600 м кучево-дожд., средняя, верхняя 
[Cb calv|Ac trans|Ci fib]
+25.2 +8.3 34 +25  996.6  -2.3  741  272           
15 28.05.17 260 (З) 5{14}  20000 м    10/10 600 м кучево-дожд. 
[Cb calv]
+19.6 +11.1 58 +23  996.2  2.1  741  276    +27.3  0.0     
18 28.05.17 230 (ЮЗ) 3{10}  10 км    8/6 600 м кучево-дожд., средняя 
[Cb calv|Ac trans]
+14.5 +11.4 82 +18  997.5  1.1  741  282           
21 28.05.17 210 (ЮЗ) 10 км    10/4 600 м средняя, верхняя 
[Cu hum|Ac trans|Cs]
+13.4 +11.9 91 +17  999.2  1.6  743  283           
00 29.05.17 200 (Ю) 20000 м    3/0 средняя 
[Ac lent]
+13.9 +12.2 89 +18  1000.4  1.2  744  283           
03 29.05.17 290 (З) 20000 м    10/10 600 м кучево-дожд. 
[Cb calv]
+16.5 +12.1 75 +21  1001.9  1.6  745  281  +12.9         
06 29.05.17 290 (З) 20000 м    9/5 1000 м средняя, верхняя 
[Cu hum|Ac trans|Ci fib]
+19.4 +12.3 63 +25  1002.1  0.3  745  278           
09 29.05.17 320 (СЗ) 20000 м  гроза без осадков  10/10 600 м кучево-дожд. 
[Cb cap]
+19.8 +11.4 58 +24  1000.5  -1.6  744  277           
12 29.05.17 260 (З) 10 км  гроза, ливневой дождь  10/10 600 м кучево-дожд. 
[Cb cap]
+16.4 +14 86 +24  1000.9  0.3  744  280           
15 29.05.17 120 (ЮВ) 20000 м  туман поземный  9/6 600 м кучево-дожд., средняя, верхняя 
[Cb calv|Ac trans|Ci fib]
+15.5 +14.2 92 +25  998.4  -2.5  742  280    +21.7     
Время (UTC), дата Ветер
(°,м/с) 
Видим.   Явления Облачность Т
(°С)
Тd
(°С)
f(%) Тe
(°С)
Pmin
(гПа)
dP
(гПа)
Po
(мм)
O2
(г/м3)
Тmin Tmax R s Состояние
почвы

Для получения пояснительной информации подведите курсор к названию столбца.

ПОГОДА Большеречье - архив

Всё, что Вы хотите узнать о погоде Большеречье - удобно и подробно!

Выберите нужную дату (начиная с 1 января 2015* года) и нажмите кнопку "Найти".
Будут отображены архивные сводки погоды по пункту Большеречье, начиная с указанной даты.


Отображать данные в формате CSV (для использования в таблицах Excel)


Внимание! Наш архив погоды предназначен исключительно для личного некоммерческого использования в познавательных целях. Если Вам необходимы официальные справки о состоянии погоды (для производственных, юридических, коммерческих и т.п. целей), обращайтесь в органы Росгидромета.

*Примечание: данная дата относится к архиву по метеостанциям СССР (Россия, СНГ, Балтия).
Архив по метеостанциям Зарубежной Европы и Азии (кроме Китая) хранится 10 дней, по другим регионам земного шара (Китай, Африка, Америка, Австралия, Океания) - 1 день.

Большеречье - район местоположения метеостанции


Название, широта, долгота, высота метеостанции:
Большеречье 56.1°ш. 74.6°д. 77 м над ур. моря [Российская Федерация]

Дополнительная информация

В oтличие oт бoльшинства пoгoдных сайтoв мы публикуем пoдрoбную метеoинфoрмацию в детальнoм прoфессиoнальнoм фoрмате.

Характеристики температуры и влажнoсти вoздуха измеряются на высoте 2 м в тени вдали oт зданий и деревьев.
Скoрoсть ветра измеряется на высoте 10 м (на урoвне рoста челoвека скoрoсть ветра ниже в 1.5-2 раза). Если метеoстанция нахoдится в гoрoде или в лесу, тo скoрoсть ветра занижена на 2-4 м/с пo сравнению с oткрытым местoм. Скoрoсть ветра над акватoриями крупных рек и oзёр, а также на вершинах хoлмoв на 2-5 м/с выше, чем в oбычных услoвиях.
Атмoсфернoе давление в разных тoчках местнoсти мoжет значительнo oтличаться oт давления на метеoстанции, в зависимoсти oт услoвий рельефа (при пoдъёме на 10 м давление пoнижается примернo на 1 мм рт.ст.).